TimeCST,TemperatureF,Dew PointF,Humidity,Sea Level PressureIn,VisibilityMPH,Wind Direction,Wind SpeedMPH,Gust SpeedMPH,PrecipitationIn,Events,Conditions,WindDirDegrees,DateUTC
12:15 AM,18.1,13.3,81,30.26,10.0,SSE,11.5,-,N/A,,Overcast,160,2013-12-25 06:15:00
12:35 AM,18.3,13.5,81,30.26,10.0,SSE,9.2,-,N/A,,Overcast,160,2013-12-25 06:35:00
12:55 AM,18.9,13.5,79,30.25,10.0,SSE,12.7,-,N/A,,Overcast,160,2013-12-25 06:55:00
1:15 AM,19.4,13.1,76,30.24,10.0,South,11.5,-,N/A,,Overcast,170,2013-12-25 07:15:00
1:35 AM,19.4,12.6,75,30.23,10.0,South,12.7,18.4,N/A,,Overcast,170,2013-12-25 07:35:00
1:55 AM,19.4,12.7,75,30.22,10.0,South,12.7,-,N/A,,Overcast,170,2013-12-25 07:55:00
2:15 AM,19.6,12.9,75,30.23,10.0,South,11.5,-,N/A,,Overcast,170,2013-12-25 08:15:00
2:35 AM,19.9,13.1,75,30.23,10.0,South,9.2,-,N/A,,Overcast,170,2013-12-25 08:35:00
2:55 AM,20.1,13.1,74,30.23,10.0,South,9.2,-,N/A,,Overcast,180,2013-12-25 08:55:00
3:15 AM,20.1,13.6,76,30.23,10.0,South,6.9,-,N/A,,Overcast,190,2013-12-25 09:15:00
3:35 AM,20.5,14.5,78,30.22,10.0,SSW,5.8,-,N/A,,Overcast,200,2013-12-25 09:35:00
3:55 AM,20.8,14.7,77,30.21,10.0,SSW,8.1,-,N/A,,Overcast,200,2013-12-25 09:55:00
4:15 AM,21.0,15.1,78,30.21,10.0,SSW,6.9,-,N/A,,Overcast,200,2013-12-25 10:15:00
4:35 AM,21.2,15.3,78,30.21,10.0,SSW,6.9,-,N/A,,Overcast,210,2013-12-25 10:35:00
4:55 AM,21.7,15.8,78,30.20,10.0,SSW,6.9,-,N/A,,Overcast,210,2013-12-25 10:55:00
5:15 AM,21.7,16.5,80,30.21,10.0,SW,5.8,-,N/A,,Overcast,220,2013-12-25 11:15:00
5:35 AM,21.9,17.2,82,30.21,10.0,SW,9.2,-,N/A,,Overcast,220,2013-12-25 11:35:00
5:55 AM,21.7,17.6,84,30.21,10.0,SW,8.1,-,N/A,,Overcast,220,2013-12-25 11:55:00
6:15 AM,21.9,18.0,85,30.21,10.0,SW,10.4,-,N/A,,Overcast,220,2013-12-25 12:15:00
6:35 AM,21.9,18.3,86,30.21,10.0,SW,6.9,-,N/A,,Overcast,220,2013-12-25 12:35:00
6:55 AM,21.9,18.3,86,30.21,10.0,SW,10.4,-,N/A,,Overcast,220,2013-12-25 12:55:00
7:15 AM,22.1,18.7,87,30.21,10.0,SW,6.9,-,N/A,,Overcast,230,2013-12-25 13:15:00
7:35 AM,22.1,19.0,88,30.21,7.0,SW,8.1,-,N/A,,Overcast,230,2013-12-25 13:35:00
7:55 AM,22.1,19.4,89,30.21,5.0,SW,8.1,-,N/A,,Overcast,230,2013-12-25 13:55:00
8:15 AM,22.3,19.4,89,30.21,5.0,SW,6.9,-,N/A,,Overcast,230,2013-12-25 14:15:00
8:35 AM,22.5,19.4,88,30.21,5.0,SW,5.8,-,N/A,,Overcast,230,2013-12-25 14:35:00
8:55 AM,22.6,19.8,89,30.20,5.0,WSW,6.9,-,N/A,,Overcast,240,2013-12-25 14:55:00
9:15 AM,22.8,19.9,89,30.21,5.0,WSW,5.8,-,N/A,,Overcast,240,2013-12-25 15:15:00
9:35 AM,23.0,19.9,88,30.21,5.0,SW,5.8,-,N/A,,Overcast,230,2013-12-25 15:35:00
9:55 AM,23.2,19.8,87,30.21,5.0,SW,9.2,-,N/A,,Overcast,230,2013-12-25 15:55:00
10:15 AM,23.5,19.9,86,30.21,5.0,WSW,6.9,-,N/A,,Overcast,240,2013-12-25 16:15:00
10:35 AM,23.7,19.9,85,30.20,5.0,SW,6.9,-,N/A,,Overcast,230,2013-12-25 16:35:00
10:55 AM,23.9,20.1,85,30.20,4.0,SW,8.1,-,N/A,,Overcast,220,2013-12-25 16:55:00
11:15 AM,23.9,20.3,86,30.19,5.0,SW,6.9,-,N/A,,Overcast,230,2013-12-25 17:15:00
11:35 AM,24.3,20.5,85,30.18,4.0,SW,8.1,-,N/A,,Overcast,230,2013-12-25 17:35:00
11:55 AM,24.4,20.7,86,30.18,4.0,SW,9.2,-,N/A,,Overcast,230,2013-12-25 17:55:00
12:15 PM,24.8,21.0,86,30.17,4.0,SW,11.5,-,N/A,,Overcast,230,2013-12-25 18:15:00
12:35 PM,25.2,21.2,85,30.16,5.0,SW,8.1,-,N/A,,Overcast,220,2013-12-25 18:35:00
12:55 PM,24.8,21.2,86,30.16,5.0,SW,11.5,-,N/A,,Overcast,230,2013-12-25 18:55:00
1:15 PM,24.8,21.2,86,30.16,4.0,WSW,9.2,16.1,N/A,,Overcast,240,2013-12-25 19:15:00
1:35 PM,24.8,21.2,86,30.15,5.0,SW,13.8,-,N/A,,Overcast,230,2013-12-25 19:35:00
1:55 PM,24.6,21.2,87,30.14,5.0,SW,8.1,-,N/A,,Overcast,230,2013-12-25 19:55:00
2:15 PM,24.8,21.6,87,30.14,1.2,SW,10.4,-,N/A,Snow,Light Snow,220,2013-12-25 20:15:00
2:35 PM,24.6,21.6,88,30.13,2.5,SW,8.1,-,N/A,Snow,Light Snow,230,2013-12-25 20:35:00
2:55 PM,24.6,21.6,88,30.14,4.0,WSW,9.2,-,N/A,,Overcast,240,2013-12-25 20:55:00
3:15 PM,24.8,21.7,88,30.15,1.5,WSW,10.4,-,N/A,Snow,Light Snow,240,2013-12-25 21:15:00
3:35 PM,24.8,21.9,89,30.15,2.0,WSW,8.1,-,N/A,Snow,Light Snow,240,2013-12-25 21:35:00
3:55 PM,24.8,21.9,89,30.15,1.8,WSW,8.1,-,N/A,Snow,Light Snow,240,2013-12-25 21:55:00
4:15 PM,24.8,22.1,89,30.15,2.0,WSW,6.9,-,N/A,Snow,Light Snow,240,2013-12-25 22:15:00
4:35 PM,25.2,22.1,88,30.14,1.8,SW,5.8,-,N/A,Snow,Light Snow,230,2013-12-25 22:35:00
4:55 PM,24.8,23.0,93,30.14,0.5,SW,4.6,-,N/A,Snow,Snow,230,2013-12-25 22:55:00
5:15 PM,24.8,23.0,93,30.14,2.5,SW,5.8,-,N/A,Snow,Light Snow,230,2013-12-25 23:15:00
5:35 PM,25.3,23.0,91,30.14,5.0,WSW,6.9,-,N/A,Snow,Light Snow,240,2013-12-25 23:35:00
5:55 PM,25.5,23.0,90,30.13,2.5,SW,6.9,-,N/A,Snow,Light Snow,230,2013-12-25 23:55:00
6:15 PM,25.3,23.0,91,30.14,4.0,WSW,5.8,-,N/A,Snow,Light Snow,250,2013-12-26 00:15:00
6:35 PM,25.7,23.0,89,30.14,7.0,WSW,4.6,-,N/A,,Overcast,250,2013-12-26 00:35:00
6:55 PM,25.7,23.0,89,30.14,7.0,West,5.8,-,N/A,,Overcast,260,2013-12-26 00:55:00
7:15 PM,25.7,23.0,89,30.15,7.0,WSW,5.8,-,N/A,,Overcast,250,2013-12-26 01:15:00
7:35 PM,25.7,22.6,88,30.14,7.0,WSW,8.1,-,N/A,,Overcast,250,2013-12-26 01:35:00
7:55 PM,25.7,22.6,88,30.14,7.0,WSW,6.9,-,N/A,,Overcast,240,2013-12-26 01:55:00
8:15 PM,25.7,22.3,87,30.14,7.0,WSW,4.6,-,N/A,,Overcast,250,2013-12-26 02:15:00
8:35 PM,24.4,21.6,89,30.14,7.0,WSW,5.8,-,N/A,,Scattered Clouds,250,2013-12-26 02:35:00
8:55 PM,25.0,21.9,88,30.14,7.0,WSW,6.9,-,N/A,,Mostly Cloudy,250,2013-12-26 02:55:00
9:15 PM,23.7,20.7,88,30.13,7.0,West,10.4,-,N/A,,Scattered Clouds,260,2013-12-26 03:15:00
9:35 PM,23.2,17.1,77,30.14,10.0,West,12.7,16.1,N/A,,Clear,270,2013-12-26 03:35:00
9:55 PM,22.1,14.7,73,30.14,10.0,West,10.4,-,N/A,,Clear,280,2013-12-26 03:55:00
10:15 PM,21.2,12.7,70,30.15,10.0,West,12.7,20.7,N/A,,Clear,280,2013-12-26 04:15:00
10:35 PM,20.7,12.0,69,30.16,10.0,West,12.7,18.4,N/A,,Clear,280,2013-12-26 04:35:00
10:55 PM,19.8,11.8,71,30.16,10.0,West,12.7,17.3,N/A,,Clear,270,2013-12-26 04:55:00
11:15 PM,19.2,11.3,71,30.16,10.0,West,11.5,21.9,N/A,,Clear,280,2013-12-26 05:15:00
11:35 PM,18.7,11.1,72,30.17,10.0,West,10.4,16.1,N/A,,Clear,280,2013-12-26 05:35:00
11:55 PM,18.5,10.8,72,30.17,10.0,WNW,8.1,-,N/A,,Clear,290,2013-12-26 05:55:00